H1 CPF 2 NER 2022 10 1 9 274 01 glonass139 H2 1808601 9139 43687 2022 10 1 0 0 0 2022 10 4 23 45 0 900 1 1 0 0 0 1 H9 10 0 59853 0.00000 0 -10438533.461 -20284116.404 11442147.605 10 0 59853 900.00000 0 -9446411.681 -19059974.807 14104360.175 10 0 59853 1800.00000 0 -8141611.756 -17698752.567 16493097.385 10 0 59853 2700.00000 0 -6529914.670 -16261842.171 18562136.691 10 0 59853 3600.00000 0 -4629754.384 -14810159.431 20271463.396 10 0 59853 4500.00000 0 -2471707.937 -13401594.213 21588033.387 10 0 59853 5400.00000 0 -97479.919 -12088609.423 22486401.571 10 0 59853 6300.00000 0 2441577.358 -10916087.421 22949205.058 10 0 59853 7200.00000 0 5086347.583 -9919512.657 22967492.765 10 0 59853 8100.00000 0 7772161.435 -9123565.098 22540895.841 10 0 59853 9000.00000 0 10431244.820 -8541182.098 21677635.939 10 0 59853 9900.00000 0 12995304.512 -8173127.118 20394371.079 10 0 59853 10800.00000 0 15398145.744 -8008082.774 18715881.578 10 0 59853 11700.00000 0 17578214.680 -8023264.240 16674601.200 10 0 59853 12600.00000 0 19480961.321 -8185527.476 14310001.456 10 0 59853 13500.00000 0 21060925.503 -8452926.231 11667839.674 10 0 59853 14400.00000 0 22283459.530 -8776652.898 8799284.046 10 0 59853 15300.00000 0 23126015.623 -9103282.084 5759931.501 10 0 59853 16200.00000 0 23578944.120 -9377222.649 2608736.511 10 0 59853 17100.00000 0 23645768.508 -9543274.782 -593129.044 10 0 59853 18000.00000 0 23342925.119 -9549183.784 -3783462.922 10 0 59853 18900.00000 0 22698977.817 -9348081.850 -6900243.355 10 0 59853 19800.00000 0 21753340.141 -8900713.448 -9882839.720 10 0 59853 20700.00000 0 20554558.355 -8177348.712 -12673198.714 10 0 59853 21600.00000 0 19158227.527 -7159302.177 -15216982.232 10 0 59853 22500.00000 0 17624628.494 -5839990.753 -17464633.911 10 0 59853 23400.00000 0 16016185.487 -4225484.338 -19372352.727 10 0 59853 24300.00000 0 14394851.858 -2334523.877 -20902954.014 10 0 59853 25200.00000 0 12819534.350 -198004.278 -22026600.576 10 0 59853 26100.00000 0 11343664.721 2142057.626 -22721389.219 10 0 59853 27000.00000 0 10013021.097 4634028.153 -22973781.051 10 0 59853 27900.00000 0 8863890.732 7218572.890 -22778867.053 10 0 59853 28800.00000 0 7921651.309 9830904.344 -22140463.675 10 0 59853 29700.00000 0 7199829.981 12403267.692 -21071036.672 10 0 59853 30600.00000 0 6699679.016 14867561.076 -19591454.734 10 0 59853 31500.00000 0 6410285.009 17157981.011 -17730577.861 10 0 59853 32400.00000 0 6309205.824 19213582.555 -15524688.779 10 0 59853 33300.00000 0 6363607.089 20980647.331 -13016778.721 10 0 59853 34200.00000 0 6531848.859 22414760.607 -10255702.016 10 0 59853 35100.00000 0 6765453.901 23482510.975 -7295216.495 10 0 59853 36000.00000 0 7011373.022 24162742.189 -4192929.052 10 0 59853 36900.00000 0 7214450.280 24447305.661 -1009167.718 10 0 59853 37800.00000 0 7319982.699 24341283.331 2194197.052 10 0 59853 38700.00000 0 7276265.283 23862673.048 5354958.295 10 0 59853 39600.00000 0 7037013.128 23041551.193 8411781.566 10 0 59853 40500.00000 0 6563557.895 21918749.259 11305393.332 10 0 59853 41400.00000 0 5826725.797 20544101.241 13979725.688 10 0 59853 42300.00000 0 4808317.964 18974336.411 16382995.435 10 0 59853 43200.00000 0 3502130.928 17270706.419 18468697.364 10 0 59853 44100.00000 0 1914474.345 15496446.215 20196493.451 10 0 59853 45000.00000 0 64164.085 13714174.678 21532981.903 10 0 59853 45900.00000 0 -2018009.492 11983342.787 22452332.472 10 0 59853 46800.00000 0 -4290316.708 10357834.700 22936776.982 10 0 59853 47700.00000 0 -6701585.122 8883820.483 22976946.627 10 0 59853 48600.00000 0 -9193096.653 7597948.551 22572050.262 10 0 59853 49500.00000 0 -11700808.142 6525951.791 21729890.623 10 0 59853 50400.00000 0 -14157804.806 5681724.314 20466718.096 10 0 59853 51300.00000 0 -16496886.515 5066906.476 18806924.352 10 0 59853 52200.00000 0 -18653181.084 4670994.873 16782580.901 10 0 59853 53100.00000 0 -20566677.193 4471972.563 14432830.372 10 0 59853 54000.00000 0 -22184572.535 4437433.090 11803140.978 10 0 59853 54900.00000 0 -23463339.873 4526151.412 8944437.276 10 0 59853 55800.00000 0 -24370424.782 4690035.984 5912122.925 10 0 59853 56700.00000 0 -24885503.888 4876380.046 2765013.437 10 0 59853 57600.00000 0 -25001250.247 5030317.208 -435801.044 10 0 59853 58500.00000 0 -24723572.968 5097377.403 -3628141.004 10 0 59853 59400.00000 0 -24071320.151 5026034.603 -6749947.774 10 0 59853 60300.00000 0 -23075456.752 4770137.548 -9740494.777 10 0 59853 61200.00000 0 -21777751.284 4291119.400 -12541575.472 10 0 59853 62100.00000 0 -20229026.093 3559891.238 -15098644.148 10 0 59853 63000.00000 0 -18487044.594 2558337.532 -17361886.483 10 0 59853 63900.00000 0 -16614124.304 1280348.555 -19287198.169 10 0 59853 64800.00000 0 -14674576.209 -267655.792 -20837051.860 10 0 59853 65700.00000 0 -12732078.300 -2066734.652 -21981235.029 10 0 59853 66600.00000 0 -10847093.921 -4085968.677 -22697443.875 10 0 59853 67500.00000 0 -9074443.486 -6283514.968 -22971721.532 10 0 59853 68400.00000 0 -7461131.521 -8608131.415 -22798731.876 10 0 59853 69300.00000 0 -6044520.067 -11001107.404 -22181863.545 10 0 59853 70200.00000 0 -4850924.646 -13398520.659 -21133162.209 10 0 59853 71100.00000 0 -3894690.962 -15733726.153 -19673092.464 10 0 59853 72000.00000 0 -3177790.159 -17939973.040 -17830134.182 10 0 59853 72900.00000 0 -2689948.305 -19953040.163 -15640221.378 10 0 59853 73800.00000 0 -2409303.142 -21713779.866 -13146034.855 10 0 59853 74700.00000 0 -2303558.778 -23170463.539 -10396162.868 10 0 59853 75600.00000 0 -2331587.855 -24280830.873 -7444146.718 10 0 59853 76500.00000 0 -2445411.797 -25013757.284 -4347430.490 10 0 59853 77400.00000 0 -2592473.853 -25350470.146 -1166236.220 10 0 59853 78300.00000 0 -2718107.351 -25285263.727 2037612.894 10 0 59853 79200.00000 0 -2768093.599 -24825683.929 5201897.654 10 0 59853 80100.00000 0 -2691200.358 -23992176.305 8265212.333 10 0 59853 81000.00000 0 -2441593.033 -22817213.485 11168154.674 10 0 59853 81900.00000 0 -1981016.413 -21343939.805 13854473.316 10 0 59853 82800.00000 0 -1280654.917 -19624390.980 16272150.633 10 0 59853 83700.00000 0 -322593.019 -17717364.048 18374400.691 10 0 59853 84600.00000 0 899185.483 -15686026.899 20120563.992 10 0 59853 85500.00000 0 2378301.284 -13595367.067 21476882.758 10 0 59854 0.00000 0 4096007.392 -11509585.754 22417143.043 10 0 59854 900.00000 0 6021741.296 -9489543.469 22923172.881 10 0 59854 1800.00000 0 8114176.959 -7590365.158 22985186.732 10 0 59854 2700.00000 0 10322737.123 -5859299.193 22601972.023 10 0 59854 3600.00000 0 12589502.224 -4333920.587 21780913.210 10 0 59854 4500.00000 0 14851439.053 -3040750.679 20537853.418 10 0 59854 5400.00000 0 17042858.065 -1994349.743 18896795.781 10 0 59854 6300.00000 0 19097998.812 -1196919.420 16889449.369 10 0 59854 7200.00000 0 20953637.200 -638431.036 14554627.395 10 0 59854 8100.00000 0 22551607.066 -297274.109 11937508.041 10 0 59854 9000.00000 0 23841131.524 -141397.843 9088770.883 10 0 59854 9900.00000 0 24780866.800 -129897.800 6063624.506 10 0 59854 10800.00000 0 25340572.843 -214981.112 2920743.202 10 0 59854 11700.00000 0 25502340.037 -344227.473 -278867.306 10 0 59854 12600.00000 0 25261319.622 -463050.319 -3473053.265 10 0 59854 13500.00000 0 24625926.065 -517253.777 -6599722.392 10 0 59854 14400.00000 0 23617501.737 -455576.462 -9598055.565 10 0 59854 15300.00000 0 22269456.984 -232113.451 -12409696.430 10 0 59854 16200.00000 0 20625920.848 191487.439 -14979894.987 10 0 59854 17100.00000 0 18739958.576 844149.572 -17258582.105 10 0 59854 18000.00000 0 16671430.432 1743892.652 -19201353.105 10 0 59854 18900.00000 0 14484581.627 2896823.214 -20770340.626 10 0 59854 19800.00000 0 12245464.496 4296634.831 -21934959.174 10 0 59854 20700.00000 0 10019301.237 5924640.707 -22672506.394 10 0 59854 21600.00000 0 7867897.836 7750338.768 -22968609.135 10 0 59854 22500.00000 0 5847217.533 9732486.751 -22817505.449 10 0 59854 23400.00000 0 4005215.383 11820643.068 -22222156.996 10 0 59854 24300.00000 0 2380024.176 13957109.471 -21194189.695 10 0 59854 25200.00000 0 998567.036 16079194.522 -19753663.884 10 0 59854 26100.00000 0 -124346.086 18121703.098 -17928678.595 10 0 59854 27000.00000 0 -986401.433 20019547.600 -15754817.921 10 0 59854 27900.00000 0 -1597629.468 21710371.324 -13274450.521 10 0 59854 28800.00000 0 -1979726.034 23137073.790 -10535896.406 10 0 59854 29700.00000 0 -2164877.172 24250132.038 -7592477.767 10 0 59854 30600.00000 0 -2194139.127 25009620.560 -4501472.959 10 0 59854 31500.00000 0 -2115443.746 25386845.290 -1322994.836 10 0 59854 32400.00000 0 -1981315.353 25365523.572 1881184.011 10 0 59854 33300.00000 0 -1846397.024 24942461.285 5048835.576 10 0 59854 34200.00000 0 -1764892.036 24127699.627 8118486.259 10 0 59854 35100.00000 0 -1788029.438 22944126.428 11030608.383 10 0 59854 36000.00000 0 -1961661.290 21426569.328 13728770.269 10 0 59854 36900.00000 0 -2324093.101 19620409.701 16160722.771 10 0 59854 37800.00000 0 -2904238.864 17579775.996 18279401.901 10 0 59854 38700.00000 0 -3720178.178 15365392.243 20043829.069 10 0 59854 39600.00000 0 -4778175.896 13042171.419 21419892.621 10 0 59854 40500.00000 0 -6072205.426 10676653.405 22380996.833 10 0 59854 41400.00000 0 -7583995.921 8334393.147 22908567.059 10 0 59854 42300.00000 0 -9283601.902 6077406.397 22992402.300 10 0 59854 43200.00000 0 -11130472.499 3961777.612 22630869.199 10 0 59854 44100.00000 0 -13074976.986 2035527.728 21830934.095 10 0 59854 45000.00000 0 -15060324.479 336828.895 20608032.514 10 0 59854 45900.00000 0 -17024799.480 -1107361.051 18985778.176 10 0 59854 46800.00000 0 -18904221.751 -2282188.758 16995516.304 10 0 59854 47700.00000 0 -20634529.383 -3185283.837 14675728.775 10 0 59854 48600.00000 0 -22154378.481 -3826610.464 12071301.370 10 0 59854 49500.00000 0 -23407651.657 -4227798.586 9232665.930 10 0 59854 50400.00000 0 -24345770.679 -4420982.799 6214832.916 10 0 59854 51300.00000 0 -24929716.275 -4447197.681 3076332.155 10 0 59854 52200.00000 0 -25131669.785 -4354397.119 -121918.422 10 0 59854 53100.00000 0 -24936206.730 -4195181.212 -3317794.238 10 0 59854 54000.00000 0 -24340990.944 -4024327.068 -6449172.793 10 0 59854 54900.00000 0 -23356938.705 -3896228.452 -9455145.761 10 0 59854 55800.00000 0 -22007844.622 -3862353.408 -12277210.183 10 0 59854 56700.00000 0 -20329483.798 -3968828.610 -14860414.813 10 0 59854 57600.00000 0 -18368226.957 -4254253.977 -17154438.473 10 0 59854 58500.00000 0 -16179226.006 -4747841.500 -19114578.534 10 0 59854 59400.00000 0 -13824245.665 -5467958.545 -20702629.575 10 0 59854 60300.00000 0 -11369231.819 -6421138.742 -21887634.571 10 0 59854 61200.00000 0 -8881718.421 -7601603.697 -22646493.468 10 0 59854 62100.00000 0 -6428181.464 -8991317.027 -22964417.089 10 0 59854 63000.00000 0 -4071450.657 -10560569.673 -22835217.362 10 0 59854 63900.00000 0 -1868287.013 -12269072.711 -22261428.143 10 0 59854 64800.00000 0 132772.741 -14067512.448 -21254254.347 10 0 59854 65700.00000 0 1893215.327 -15899502.893 -19833350.419 10 0 59854 66600.00000 0 3385919.181 -17703853.695 -18026432.644 10 0 59854 67500.00000 0 4596035.703 -19417058.327 -15868733.059 10 0 59854 68400.00000 0 5521348.048 -20975897.808 -13402305.891 10 0 59854 69300.00000 0 6172094.084 -22320050.291 -10675200.523 10 0 59854 70200.00000 0 6570262.936 -23394596.623 -7740517.602 10 0 59854 71100.00000 0 6748396.816 -24152316.399 -4655367.317 10 0 59854 72000.00000 0 6747950.635 -24555677.895 -1479750.932 10 0 59854 72900.00000 0 6617280.646 -24578438.456 1724611.915 10 0 59854 73800.00000 0 6409348.764 -24206788.410 4895486.687 10 0 59854 74700.00000 0 6179240.980 -23439991.050 7971334.078 10 0 59854 75600.00000 0 5981605.794 -22290492.537 10892503.060 10 0 59854 76500.00000 0 5868121.524 -20783497.877 13602383.576 10 0 59854 77400.00000 0 5885099.666 -18956031.493 16048496.761 10 0 59854 78300.00000 0 6071325.319 -16855522.209 18183502.213 10 0 59854 79200.00000 0 6456225.399 -14537972.019 19966103.719 10 0 59854 80100.00000 0 7058441.292 -12065784.952 21361837.011 10 0 59854 81000.00000 0 7884865.617 -9505345.913 22343725.573 10 0 59854 81900.00000 0 8930183.366 -6924449.256 22892793.089 10 0 59854 82800.00000 0 10176936.801 -4389682.728 22998423.634 10 0 59854 83700.00000 0 11596111.927 -1963873.813 22658563.504 10 0 59854 84600.00000 0 13148222.926 296297.257 21879761.173 10 0 59854 85500.00000 0 14784850.472 2342420.342 20677044.643 10 0 59855 0.00000 0 16450570.962 4136127.420 19073638.273 10 0 59855 900.00000 0 18085198.587 5650442.415 17100522.836 10 0 59855 1800.00000 0 19626245.752 6870651.283 14795848.479 10 0 59855 2700.00000 0 21011503.270 7794660.102 12204207.777 10 0 59855 3600.00000 0 22181631.043 8432824.148 9375783.726 10 0 59855 4500.00000 0 23082652.057 8807256.315 6365387.223 10 0 59855 5400.00000 0 23668244.934 8950643.795 3231401.814 10 0 59855 6300.00000 0 23901738.320 8904622.752 34655.486 10 0 59855 7200.00000 0 23757722.329 8717779.470 -3162758.830 10 0 59855 8100.00000 0 23223208.018 8443362.510 -6298691.126 10 0 59855 9000.00000 0 22298284.604 8136802.912 -9312146.737 10 0 59855 9900.00000 0 20996245.209 7853147.888 -12144479.030 10 0 59855 10800.00000 0 19343174.295 7644517.481 -14740538.410 10 0 59855 11700.00000 0 17377012.717 7557692.866 -17049754.475 10 0 59855 12600.00000 0 15146138.577 7631939.571 -19027129.325 10 0 59855 13500.00000 0 12707522.483 7897158.980 -20634122.023 10 0 59855 14400.00000 0 10124533.962 8372447.615 -21839406.371 10 0 59855 15300.00000 0 7464490.489 9065126.298 -22619486.777 10 0 59855 16200.00000 0 4796051.479 9970281.334 -22959159.958 10 0 59855 17100.00000 0 2186565.969 11070838.073 -22851813.323 10 0 59855 18000.00000 0 -300515.267 12338164.508 -22299554.162 10 0 59855 18900.00000 0 -2608055.360 13733180.081 -21313167.164 10 0 59855 19800.00000 0 -4687374.328 15207923.349 -19911901.171 10 0 59855 20700.00000 0 -6500030.431 16707512.609 -18123089.472 10 0 59855 21600.00000 0 -8019166.446 18172416.907 -15981611.273 10 0 59855 22500.00000 0 -9230365.810 19540941.586 -13529205.092 10 0 59855 23400.00000 0 -10131984.250 20751823.363 -10813647.942 10 0 59855 24300.00000 0 -10734944.898 21746825.305 -7887816.777 10 0 59855 25200.00000 0 -11062007.496 22473222.061 -4808651.136 10 0 59855 26100.00000 0 -11146544.546 22886070.407 -1636037.934 10 0 59855 27000.00000 0 -11030878.087 22950169.419 1568359.120 10 0 59855 27900.00000 0 -10764249.153 22641627.834 4742302.055 10 0 59855 28800.00000 0 -10400507.294 21948972.951 7824189.067 10 0 59855 29700.00000 0 -9995618.989 20873754.874 10754248.982 10 0 59855 30600.00000 0 -9605101.040 19430621.260 13475696.546 10 0 59855 31500.00000 0 -9281487.668 17646859.962 15935826.267 10 0 59855 32400.00000 0 -9071938.169 15561429.087 18087024.271 10 0 59855 33300.00000 0 -9016085.613 13223515.165 19887679.485 10 0 59855 34200.00000 0 -9144216.597 10690679.463 21302977.545 10 0 59855 35100.00000 0 -9475857.976 8026669.135 22305563.393 10 0 59855 36000.00000 0 -10018829.415 5298983.281 22876060.958 10 0 59855 36900.00000 0 -10768801.187 2576293.842 23003440.917 10 0 59855 37800.00000 0 -11709375.791 -74173.209 22685230.317 10 0 59855 38700.00000 0 -12812690.404 -2589189.499 21927560.386 10 0 59855 39600.00000 0 -14040515.719 -4911904.551 20745051.697 10 0 59855 40500.00000 0 -15345806.330 -6993957.680 19160538.482 10 0 59855 41400.00000 0 -16674639.110 -8797235.325 17204636.660 10 0 59855 42300.00000 0 -17968459.797 -10295201.829 14915162.863 10 0 59855 43200.00000 0 -19166545.003 -11473749.202 12336414.463 10 0 59855 44100.00000 0 -20208577.423 -12331530.979 9518323.185 10 0 59855 45000.00000 0 -21037226.859 -12879766.421 6515497.571 10 0 59855 45900.00000 0 -21600628.800 -13141523.399 3386171.825 10 0 59855 46800.00000 0 -21854656.055 -13150510.026 191080.720 10 0 59855 47700.00000 0 -21764887.017 -12949425.820 -3007717.869 10 0 59855 48600.00000 0 -21308186.505 -12587941.933 -6148049.912 10 0 59855 49500.00000 0 -20473831.045 -12120395.919 -9168837.917 10 0 59855 50400.00000 0 -19264129.514 -11603298.809 -12011295.047 10 0 59855 51300.00000 0 -17694511.239 -11092760.542 -14620076.723 10 0 59855 52200.00000 0 -15793076.145 -10641943.455 -16944366.471 10 0 59855 53100.00000 0 -13599624.367 -10298652.502 -18938873.968 10 0 59855 54000.00000 0 -11164204.801 -10103165.179 -20564725.174 10 0 59855 54900.00000 0 -8545242.394 -10086393.930 -21790226.619 10 0 59855 55800.00000 0 -5807321.966 -10268459.729 -22591488.478 10 0 59855 56700.00000 0 -3018720.721 -10657737.939 -22952894.041 10 0 59855 57600.00000 0 -248792.201 -11250417.497 -22867406.275 10 0 59855 58500.00000 0 2434689.236 -12030592.580 -22336705.407 10 0 59855 59400.00000 0 4968112.866 -12970883.240 -21371154.923 10 0 59855 60300.00000 0 7294437.454 -14033559.019 -19989596.660 10 0 59855 61200.00000 0 9365318.515 -15172118.117 -18218979.167 10 0 59855 62100.00000 0 11142868.879 -16333255.287 -16093826.779 10 0 59855 63000.00000 0 12600980.003 -17459135.158 -13655560.015 10 0 59855 63900.00000 0 13726149.980 -18489874.562 -10951681.007 10 0 59855 64800.00000 0 14517785.187 -19366128.645 -8034840.340 10 0 59855 65700.00000 0 14987964.794 -20031671.170 -4961804.070 10 0 59855 66600.00000 0 15160679.994 -20435859.628 -1792341.861 10 0 59855 67500.00000 0 15070582.096 -20535880.937 1411941.427 10 0 59855 68400.00000 0 14761294.220 -20298682.836 4588807.269 10 0 59855 69300.00000 0 14283359.567 -19702509.642 7676594.088 10 0 59855 70200.00000 0 13691914.310 -18737977.915 10615413.116 10 0 59855 71100.00000 0 13044184.353 -17408647.071 13348306.187 10 0 59855 72000.00000 0 12396912.140 -15731061.322 15822343.186 10 0 59855 72900.00000 0 11803822.139 -13734261.427 17989638.463 10 0 59855 73800.00000 0 11313231.470 -11458786.693 19808267.453 10 0 59855 74700.00000 0 10965905.636 -8955208.759 21243066.752 10 0 59855 75600.00000 0 10793248.698 -6282257.679 22266303.498 10 0 59855 76500.00000 0 10815903.069 -3504617.361 22858202.305 10 0 59855 77400.00000 0 11042816.942 -690480.763 23007320.635 10 0 59855 78300.00000 0 11470818.006 2091035.239 22710766.210 10 0 59855 79200.00000 0 12084711.149 4772509.855 21974252.736 10 0 59855 80100.00000 0 12857896.365 7290766.322 20811992.886 10 0 59855 81000.00000 0 13753481.582 9589243.901 19246430.294 10 0 59855 81900.00000 0 14725844.765 11620097.051 17307814.940 10 0 59855 82800.00000 0 15722580.925 13345935.791 15033629.121 10 0 59855 83700.00000 0 16686753.501 14741135.837 12467873.872 10 0 59855 84600.00000 0 17559356.656 15792664.538 9660228.316 10 0 59855 85500.00000 0 18281885.721 16500388.371 6665097.092 10 0 59856 0.00000 0 18798907.996 16876849.221 3540563.568 10 0 59856 900.00000 0 19060525.781 16946518.867 347266.736 10 0 59856 1800.00000 0 19024626.612 16744562.408 -2852772.491 10 0 59856 2700.00000 0 18658825.698 16315163.274 -5997358.405 10 0 59856 3600.00000 0 17942016.452 15709479.855 -9025333.095 10 0 59856 4500.00000 0 16865462.361 14983320.441 -11877771.953 10 0 59856 5400.00000 0 15433382.212 14194635.023 -14499137.803 10 0 59856 6300.00000 0 13663002.127 13400930.517 -16838370.418 10 0 59856 7200.00000 0 11584070.451 12656719.363 -18849889.270 10 0 59856 8100.00000 0 9237854.238 12011110.164 -20494489.337 10 0 59856 9000.00000 0 6675658.059 11505642.950 -21740111.887 10 0 59856 9900.00000 0 3956926.186 11172461.308 -22562474.739 10 0 59856 10800.00000 0 1147006.734 11032899.183 -22945549.471 10 0 59856 11700.00000 0 -1685329.380 11096542.521 -22881876.081 10 0 59856 12600.00000 0 -4470511.341 11360805.626 -22372708.902 10 0 59856 13500.00000 0 -7140824.080 11811040.252 -21427990.988 10 0 59856 14400.00000 0 -9632986.139 12421172.697 -20066157.491 10 0 59856 15300.00000 0 -11890542.464 13154841.754 -18313772.054 10 0 59856 16200.00000 0 -13865972.793 13966989.049 -16205003.490 10 0 59856 17100.00000 0 -15522428.298 14805834.037 -13780953.215 10 0 59856 18000.00000 0 -16835024.799 15615149.591 -11088846.987 10 0 59856 18900.00000 0 -17791639.750 16336741.323 -8181107.177 10 0 59856 19800.00000 0 -18393181.159 16913025.198 -5114324.245 10 0 59856 20700.00000 0 -18653318.906 17289593.867 -1948148.256 10 0 59856 21600.00000 0 -18597691.741 17417662.772 1255877.318 10 0 59856 22500.00000 0 -18262625.287 17256292.386 4435516.100 10 0 59856 23400.00000 0 -17693416.856 16774292.580 7529049.590 10 0 59856 24300.00000 0 -16942261.004 15951728.844 10476474.377 10 0 59856 25200.00000 0 -16065904.476 14780967.013 13220662.407 10 0 59856 26100.00000 0 -15123130.152 13267212.750 15708461.968 10 0 59856 27000.00000 0 -14172176.301 11428523.279 17891718.602 10 0 59856 27900.00000 0 -13268199.562 9295290.796 19728197.074 10 0 59856 28800.00000 0 -12460887.783 6909218.989 21182387.559 10 0 59856 29700.00000 0 -11792322.105 4321834.767 22226181.722 10 0 59856 30600.00000 0 -11295176.959 1592596.241 22839406.856 10 0 59856 31500.00000 0 -10991332.411 -1213325.489 23010208.799 10 0 59856 32400.00000 0 -10890956.091 -4027500.231 22735277.117 10 0 59856 33300.00000 0 -10992092.505 -6780828.208 22019908.680 10 0 59856 34200.00000 0 -11280776.655 -9406159.477 20877908.476 10 0 59856 35100.00000 0 -11731667.293 -11840836.511 19331329.256 10 0 59856 36000.00000 0 -12309173.732 -14029056.009 17410054.290 10 0 59856 36900.00000 0 -12969029.686 -15923953.169 15151230.306 10 0 59856 37800.00000 0 -13660248.969 -17489322.780 12598560.338 10 0 59856 38700.00000 0 -14327381.779 -18700906.133 9801468.872 10 0 59856 39600.00000 0 -14912977.373 -19547190.291 6814154.280 10 0 59856 40500.00000 0 -15360149.922 -20029686.353 3694545.908 10 0 59856 41400.00000 0 -15615139.415 -20162674.885 503185.254 10 0 59856 42300.00000 0 -15629759.203 -19972428.876 -2697947.305 10 0 59856 43200.00000 0 -15363626.018 -19495946.633 -5846637.531 10 0 59856 44100.00000 0 -14786077.016 -18779247.752 -8881650.359 10 0 59856 45000.00000 0 -13877691.294 -17875303.964 -11743926.724 10 0 59856 45900.00000 0 -12631349.832 -16841692.288 -14377740.166 10 0 59856 46800.00000 0 -11052787.141 -15738069.884 -16731789.906 10 0 59856 47700.00000 0 -9160609.460 -14623577.698 -18760208.217 10 0 59856 48600.00000 0 -6985776.874 -13554283.115 -20423461.769 10 0 59856 49500.00000 0 -4570569.413 -12580770.125 -21689128.821 10 0 59856 50400.00000 0 -1967079.182 -11745979.324 -22532536.587 10 0 59856 51300.00000 0 764709.471 -11083389.258 -22937246.120 10 0 59856 52200.00000 0 3559172.291 -10615616.135 -22895375.082 10 0 59856 53100.00000 0 6347536.344 -10353491.018 -22407752.014 10 0 59856 54000.00000 0 9060506.565 -10295653.288 -21483899.148 10 0 59856 54900.00000 0 11630918.304 -10428677.158 -20141844.131 10 0 59856 55800.00000 0 13996305.322 -10727725.370 -18407764.479 10 0 59856 56700.00000 0 16101276.437 -11157701.762 -16315471.885 10 0 59856 57600.00000 0 17899601.965 -11674853.167 -13905746.700 10 0 59856 58500.00000 0 19355923.385 -12228752.053 -11225535.969 10 0 59856 59400.00000 0 20447015.659 -12764575.107 -8327031.175 10 0 59856 60300.00000 0 21162550.524 -13225580.463 -5266644.203 10 0 59856 61200.00000 0 21505330.224 -13555677.932 -2103902.288 10 0 59856 62100.00000 0 21490983.571 -13701982.776 1099715.859 10 0 59856 63000.00000 0 21147138.925 -13617244.478 4281979.410 10 0 59856 63900.00000 0 20512110.646 -13262047.501 7381116.254 10 0 59856 64800.00000 0 19633155.972 -12606690.900 10337011.443 10 0 59856 65700.00000 0 18564377.031 -11632667.517 13092369.844 10 0 59856 66600.00000 0 17364357.252 -10333680.484 15593820.587 10 0 59856 67500.00000 0 16093632.093 -8716154.384 17792942.447 10 0 59856 68400.00000 0 14812100.397 -6799219.535 19647191.144 10 0 59856 69300.00000 0 13576484.618 -4614169.832 21120711.639 10 0 59856 70200.00000 0 12437945.648 -2203416.279 22185020.934 10 0 59856 71100.00000 0 11439951.021 381021.056 22819549.423 10 0 59856 72000.00000 0 10616484.593 3079420.982 23012031.385 10 0 59856 72900.00000 0 9990671.334 5826591.231 22758737.956 10 0 59856 73800.00000 0 9573873.716 8554329.735 22064548.594 10 0 59856 74700.00000 0 9365296.727 11194016.719 20942859.749 10 0 59856 75600.00000 0 9352117.586 13679231.912 19415332.190 10 0 59856 76500.00000 0 9510134.647 15948289.934 17511481.179 10 0 59856 77400.00000 0 9804908.596 17946589.854 15268116.387 10 0 59856 78300.00000 0 10193348.513 19628682.368 12728641.203 10 0 59856 79200.00000 0 10625676.820 20959969.169 9942223.663 10 0 59856 80100.00000 0 11047691.066 21917963.901 6962853.922 10 0 59856 81000.00000 0 11403227.684 22493061.982 3848305.481 10 0 59856 81900.00000 0 11636724.005 22688786.797 659019.570 10 0 59856 82800.00000 0 11695770.125 22521501.447 -2543065.991 10 0 59856 83700.00000 0 11533542.190 22019597.699 -5695720.759 10 0 59856 84600.00000 0 11111013.188 21222195.803 -8737634.821 10 0 59856 85500.00000 0 10398846.373 20177409.600 -11609616.875 99